contact:dominique.lefevre@mio.osupytheas.fr, maurice.libes@osupytheas.fr, didier.mallarino@osupytheas.fr
Project:EMSO http://www.emso-fr.org/EMSO-France
Depth: 2436.0 m
Title:EMSO Ligure Ouest : Data MII capteur AQUADOPP
Date,Latitude,Longitude,X_East,Y_North,Z_Up,Amplitude_X,Amplitude_Y,Amplitude_Z,Batterie,SoundSpeed,Heading,Pitch,Roll,Pressure,TIS,Speed,Direction
, degrees North, degrees East, m.s-1, m.s-1,m.s-1, 1, 1, 1, Volt, m.s-1, degree, degree, degree, dbar, degree_C, m.s-1, degree
2020-07-08T00:04:03,42.805,6.029,-0.02,0.027,-0.015,103.0,106.0,100.0,13.4,1505.3,322.7,-0.7,1.8,2470.454,13.33,0.033,323.5
2020-07-08T00:07:03,42.805,6.029,-0.001,-0.013,-0.037,103.0,105.0,99.0,13.4,1505.4,325.4,-0.8,1.8,2470.409,13.34,0.013,184.4
2020-07-08T00:10:03,42.805,6.029,0.014,-0.011,-0.005,103.0,105.0,100.0,13.4,1505.4,322.8,-0.7,1.8,2470.385,13.34,0.017,128.2
2020-07-08T00:13:03,42.805,6.029,-0.001,0.0,-0.031,104.0,107.0,101.0,13.3,1505.4,323.5,-0.7,1.9,2470.434,13.34,0.001,270.0
2020-07-08T00:16:03,42.805,6.029,-0.021,-0.003,-0.038,103.0,107.0,101.0,13.4,1505.4,326.6,-0.7,1.8,2470.445,13.34,0.021,261.9
2020-07-08T00:19:03,42.805,6.029,0.008,0.001,-0.003,104.0,105.0,100.0,13.4,1505.4,325.4,-0.7,1.8,2470.431,13.34,0.008,82.9
2020-07-08T00:22:03,42.805,6.029,-0.002,-0.012,-0.026,104.0,106.0,100.0,13.4,1505.4,322.9,-0.7,1.8,2470.375,13.34,0.012,189.5
2020-07-08T00:25:03,42.805,6.029,0.005,-0.014,0.001,102.0,105.0,101.0,13.3,1505.4,324.6,-0.7,1.8,2470.384,13.35,0.014,160.4
2020-07-08T00:28:03,42.805,6.029,0.012,0.007,0.048,103.0,106.0,101.0,13.4,1505.4,323.7,-0.7,1.9,2470.382,13.35,0.013,59.7
2020-07-08T00:31:03,42.805,6.029,0.009,-0.001,-0.021,103.0,105.0,100.0,13.4,1505.4,326.6,-0.6,1.8,2470.391,13.34,0.009,96.3
2020-07-08T00:34:03,42.805,6.029,0.023,-0.006,-0.009,103.0,106.0,101.0,13.3,1505.4,326.3,-0.7,1.8,2470.394,13.35,0.023,104.6
2020-07-08T00:37:03,42.805,6.029,0.001,0.014,0.023,104.0,105.0,100.0,13.4,1505.4,327.2,-0.7,1.8,2470.34,13.35,0.014,4.1
2020-07-08T00:40:03,42.805,6.029,0.003,0.016,-0.008,103.0,106.0,101.0,13.3,1505.4,323.8,-0.7,1.8,2470.375,13.35,0.016,10.6
2020-07-08T00:43:03,42.805,6.029,0.022,0.006,-0.013,104.0,105.0,102.0,13.3,1505.4,326.6,-0.7,1.8,2470.386,13.35,0.022,74.7
2020-07-08T00:46:03,42.805,6.029,0.017,0.019,0.035,104.0,106.0,101.0,13.4,1505.4,325.1,-0.7,1.8,2470.382,13.35,0.025,41.8
2020-07-08T00:49:03,42.805,6.029,-0.013,0.012,-0.001,104.0,106.0,101.0,13.4,1505.4,326.5,-0.7,1.8,2470.353,13.35,0.017,312.7
2020-07-08T00:52:03,42.805,6.029,-0.021,-0.002,0.007,103.0,106.0,102.0,13.3,1505.4,325.4,-0.7,1.8,2470.405,13.35,0.021,264.6
2020-07-08T00:55:03,42.805,6.029,-0.003,0.001,-0.043,104.0,106.0,101.0,13.4,1505.4,324.7,-0.7,1.8,2470.355,13.35,0.003,288.4
2020-07-08T00:58:03,42.805,6.029,-0.012,0.012,-0.019,104.0,106.0,100.0,13.3,1505.4,326.6,-0.7,1.8,2470.367,13.35,0.016,315.0
2020-07-08T01:04:03,42.805,6.029,-0.005,-0.006,0.003,106.0,109.0,102.0,13.3,1505.3,324.4,-0.7,1.8,2470.436,13.33,0.007,219.8
2020-07-08T01:07:03,42.805,6.029,-0.006,0.007,-0.046,103.0,108.0,100.0,13.4,1505.3,324.1,-0.7,1.8,2470.411,13.33,0.009,319.4
2020-07-08T01:10:03,42.805,6.029,-0.007,-0.006,0.021,104.0,107.0,101.0,13.4,1505.4,325.3,-0.7,1.8,2470.399,13.34,0.009,229.4
2020-07-08T01:13:03,42.805,6.029,-0.019,0.02,0.007,103.0,108.0,101.0,13.3,1505.4,325.1,-0.7,1.9,2470.355,13.34,0.027,316.5
2020-07-08T01:16:03,42.805,6.029,-0.015,0.005,-0.025,105.0,108.0,99.0,13.4,1505.4,328.4,-0.7,1.8,2470.388,13.34,0.015,288.4
2020-07-08T01:19:03,42.805,6.029,-0.003,0.006,0.01,103.0,108.0,100.0,13.3,1505.4,325.3,-0.7,1.8,2470.367,13.34,0.006,333.4
2020-07-08T01:22:03,42.805,6.029,-0.018,0.029,0.007,104.0,108.0,101.0,13.4,1505.4,324.1,-0.7,1.8,2470.396,13.34,0.034,328.2
2020-07-08T01:25:03,42.805,6.029,-0.022,0.001,-0.041,103.0,107.0,102.0,13.3,1505.4,327.5,-0.7,1.8,2470.325,13.34,0.022,272.6
2020-07-08T01:28:03,42.805,6.029,-0.015,0.022,-0.055,104.0,108.0,101.0,13.4,1505.4,326.7,-0.7,1.8,2470.361,13.34,0.026,325.7
2020-07-08T01:31:03,42.805,6.029,-0.011,0.014,-0.001,103.0,107.0,101.0,13.4,1505.4,325.7,-0.7,1.8,2470.314,13.34,0.017,321.8
2020-07-08T01:34:03,42.805,6.029,-0.001,0.022,0.012,103.0,107.0,100.0,13.3,1505.4,324.8,-0.7,1.8,2470.352,13.34,0.022,357.4
2020-07-08T01:37:03,42.805,6.029,-0.027,-0.005,-0.018,105.0,107.0,100.0,13.3,1505.4,325.4,-0.7,1.8,2470.332,13.34,0.027,259.5
2020-07-08T01:40:03,42.805,6.029,-0.027,0.011,-0.022,103.0,108.0,101.0,13.4,1505.4,328.1,-0.7,1.8,2470.349,13.34,0.029,292.2
2020-07-08T01:43:03,42.805,6.029,-0.023,-0.001,-0.004,104.0,107.0,100.0,13.4,1505.4,322.9,-0.7,1.8,2470.327,13.34,0.023,267.5
2020-07-08T01:46:03,42.805,6.029,0.005,0.018,0.027,103.0,106.0,101.0,13.3,1505.4,326.8,-0.7,1.8,2470.344,13.34,0.018,15.5
2020-07-08T01:49:03,42.805,6.029,-0.014,0.004,0.029,103.0,108.0,101.0,13.3,1505.4,324.6,-0.7,1.8,2470.369,13.34,0.014,285.9
2020-07-08T01:52:03,42.805,6.029,0.015,0.022,0.043,103.0,108.0,101.0,13.4,1505.4,328.3,-0.7,1.8,2470.329,13.34,0.026,34.3
2020-07-08T01:55:03,42.805,6.029,-0.008,0.007,-0.015,105.0,109.0,101.0,13.4,1505.4,323.1,-0.7,1.8,2470.31,13.34,0.01,311.2
2020-07-08T01:58:03,42.805,6.029,-0.013,0.001,-0.034,105.0,107.0,101.0,13.4,1505.4,326.0,-0.8,1.8,2470.318,13.34,0.013,274.4
2020-07-08T02:04:03,42.805,6.029,-0.009,0.038,0.034,104.0,107.0,101.0,13.4,1505.3,327.9,-0.7,1.8,2470.348,13.32,0.039,346.7
2020-07-08T02:07:03,42.805,6.029,-0.008,0.005,-0.005,104.0,107.0,100.0,13.3,1505.3,327.8,-0.7,1.8,2470.35,13.33,0.009,302.0
2020-07-08T02:10:03,42.805,6.029,-0.02,0.015,-0.025,105.0,108.0,101.0,13.4,1505.3,328.0,-0.7,1.9,2470.342,13.33,0.025,306.9
2020-07-08T02:13:03,42.805,6.029,-0.009,0.001,-0.019,104.0,109.0,101.0,13.4,1505.3,327.9,-0.7,1.8,2470.343,13.33,0.009,276.3
2020-07-08T02:16:03,42.805,6.029,-0.045,0.002,-0.031,105.0,108.0,100.0,13.3,1505.4,324.4,-0.7,1.8,2470.347,13.34,0.045,272.5
2020-07-08T02:19:03,42.805,6.029,0.0,0.018,0.0,104.0,110.0,102.0,13.3,1505.4,326.6,-0.7,1.9,2470.356,13.34,0.018,0.0
2020-07-08T02:22:03,42.805,6.029,0.014,0.038,0.037,104.0,109.0,101.0,13.3,1505.4,328.3,-0.7,1.8,2470.338,13.34,0.04,20.2
2020-07-08T02:25:03,42.805,6.029,-0.008,0.02,-0.004,103.0,108.0,101.0,13.4,1505.4,326.5,-0.7,1.8,2470.304,13.34,0.021,338.2
2020-07-08T02:28:03,42.805,6.029,0.018,0.02,0.027,103.0,109.0,101.0,13.4,1505.4,324.1,-0.7,1.9,2470.378,13.34,0.026,42.0
2020-07-08T02:31:03,42.805,6.029,0.008,0.014,0.006,104.0,110.0,100.0,13.4,1505.4,323.9,-0.7,1.8,2470.278,13.34,0.016,29.7
2020-07-08T02:34:03,42.805,6.029,0.005,0.036,0.018,104.0,108.0,101.0,13.4,1505.4,327.6,-0.7,1.8,2470.285,13.34,0.036,7.9
2020-07-08T02:37:03,42.805,6.029,0.028,0.026,0.007,104.0,109.0,101.0,13.4,1505.3,327.1,-0.7,1.8,2470.354,13.33,0.038,47.1
2020-07-08T02:40:03,42.805,6.029,0.019,-0.019,-0.007,104.0,108.0,101.0,13.3,1505.3,325.2,-0.7,1.8,2470.302,13.33,0.026,135.0
2020-07-08T02:43:03,42.805,6.029,0.006,0.046,0.042,105.0,108.0,101.0,13.4,1505.3,324.3,-0.7,1.8,2470.319,13.33,0.046,7.4
2020-07-08T02:46:03,42.805,6.029,0.02,0.02,0.007,104.0,110.0,101.0,13.4,1505.3,324.6,-0.7,1.8,2470.334,13.33,0.028,45.0
2020-07-08T02:49:03,42.805,6.029,0.02,0.0,-0.001,104.0,109.0,101.0,13.4,1505.3,325.7,-0.7,1.8,2470.321,13.33,0.02,90.0
2020-07-08T02:52:03,42.805,6.029,0.03,0.017,0.018,104.0,109.0,101.0,13.4,1505.3,327.8,-0.7,1.8,2470.336,13.33,0.034,60.5
2020-07-08T02:55:03,42.805,6.029,0.012,0.009,0.009,104.0,109.0,101.0,13.3,1505.3,324.2,-0.7,1.8,2470.33,13.33,0.015,53.1
2020-07-08T02:58:03,42.805,6.029,0.005,-0.001,0.02,104.0,109.0,101.0,13.4,1505.3,324.9,-0.7,1.8,2470.294,13.33,0.005,101.3
2020-07-08T03:04:03,42.805,6.029,0.013,0.015,-0.012,104.0,109.0,100.0,13.4,1505.3,324.7,-0.7,1.8,2470.306,13.31,0.019,40.9
2020-07-08T03:07:03,42.805,6.029,-0.002,0.012,0.002,105.0,108.0,101.0,13.4,1505.3,324.7,-0.7,1.8,2470.296,13.32,0.012,350.5
2020-07-08T03:10:03,42.805,6.029,0.024,0.013,-0.006,105.0,109.0,101.0,13.4,1505.3,326.3,-0.7,1.8,2470.273,13.32,0.027,61.6
2020-07-08T03:13:03,42.805,6.029,0.018,0.017,0.011,104.0,109.0,102.0,13.4,1505.3,328.7,-0.7,1.8,2470.327,13.33,0.024,46.6
2020-07-08T03:16:03,42.805,6.029,-0.01,0.018,-0.017,103.0,109.0,101.0,13.4,1505.3,326.3,-0.7,1.8,2470.329,13.33,0.02,330.9
2020-07-08T03:19:03,42.805,6.029,0.012,0.014,0.002,104.0,109.0,101.0,13.4,1505.3,327.6,-0.7,1.8,2470.289,13.33,0.018,40.6
2020-07-08T03:22:03,42.805,6.029,0.001,0.008,0.008,103.0,109.0,100.0,13.4,1505.3,325.6,-0.7,1.8,2470.286,13.33,0.008,7.1
2020-07-08T03:25:03,42.805,6.029,0.003,0.008,-0.015,104.0,109.0,100.0,13.4,1505.3,326.9,-0.7,1.8,2470.311,13.33,0.008,20.6
2020-07-08T03:28:03,42.805,6.029,-0.012,0.024,-0.011,102.0,110.0,101.0,13.4,1505.3,325.1,-0.7,1.8,2470.308,13.33,0.026,333.4
2020-07-08T03:31:03,42.805,6.029,0.022,0.036,-0.003,103.0,110.0,101.0,13.4,1505.3,326.5,-0.7,1.8,2470.331,13.33,0.042,31.4
2020-07-08T03:34:03,42.805,6.029,0.018,0.029,0.036,103.0,111.0,101.0,13.3,1505.3,325.3,-0.7,1.8,2470.299,13.33,0.034,31.8
2020-07-08T03:37:03,42.805,6.029,-0.003,0.033,-0.026,104.0,110.0,100.0,13.4,1505.3,328.0,-0.7,1.8,2470.314,13.33,0.033,354.8
2020-07-08T03:40:03,42.805,6.029,0.009,0.015,0.001,104.0,111.0,100.0,13.4,1505.3,324.6,-0.7,1.8,2470.326,13.33,0.017,31.0
2020-07-08T03:43:03,42.805,6.029,0.028,0.027,-0.005,103.0,111.0,100.0,13.4,1505.3,325.4,-0.7,1.9,2470.258,13.33,0.038,46.0
2020-07-08T03:46:03,42.805,6.029,0.055,0.016,0.006,103.0,111.0,101.0,13.4,1505.3,325.3,-0.7,1.8,2470.256,13.33,0.057,73.8
2020-07-08T03:49:03,42.805,6.029,-0.006,0.008,-0.006,103.0,112.0,100.0,13.4,1505.3,325.4,-0.7,1.8,2470.321,13.32,0.01,323.1
2020-07-08T03:52:03,42.805,6.029,0.017,0.016,0.003,103.0,110.0,102.0,13.3,1505.3,325.9,-0.7,1.8,2470.258,13.33,0.023,46.7
2020-07-08T03:55:03,42.805,6.029,0.007,0.016,-0.014,104.0,111.0,101.0,13.4,1505.3,325.7,-0.7,1.8,2470.285,13.33,0.017,23.6
2020-07-08T03:58:03,42.805,6.029,0.013,0.019,0.028,103.0,110.0,100.0,13.4,1505.3,325.2,-0.7,1.8,2470.297,13.33,0.023,34.4
2020-07-08T04:04:03,42.805,6.029,-0.002,0.032,-0.019,104.0,112.0,100.0,13.4,1505.3,327.1,-0.8,1.8,2470.328,13.31,0.032,356.4
2020-07-08T04:07:03,42.805,6.029,-0.027,0.034,-0.016,103.0,115.0,100.0,13.4,1505.3,325.0,-0.7,1.8,2470.285,13.31,0.043,321.5
2020-07-08T04:10:03,42.805,6.029,0.014,0.028,-0.008,104.0,113.0,101.0,13.4,1505.3,323.7,-0.7,1.8,2470.34,13.32,0.031,26.6
2020-07-08T04:13:03,42.805,6.029,-0.003,0.006,-0.017,104.0,114.0,100.0,13.4,1505.3,325.7,-0.7,1.8,2470.3,13.32,0.006,333.4
2020-07-08T04:16:03,42.805,6.029,0.026,0.007,-0.018,104.0,113.0,100.0,13.4,1505.3,323.9,-0.7,1.8,2470.294,13.32,0.026,74.9
2020-07-08T04:19:03,42.805,6.029,0.01,0.024,-0.019,104.0,113.0,101.0,13.4,1505.3,326.7,-0.7,1.8,2470.292,13.32,0.026,22.6
2020-07-08T04:22:03,42.805,6.029,0.019,0.03,-0.012,103.0,113.0,102.0,13.3,1505.3,324.5,-0.7,1.8,2470.298,13.32,0.035,32.3
2020-07-08T04:25:03,42.805,6.029,-0.021,0.036,-0.028,104.0,114.0,100.0,13.3,1505.3,328.1,-0.7,1.8,2470.28,13.32,0.041,329.7
2020-07-08T04:28:03,42.805,6.029,0.008,0.039,0.024,104.0,112.0,101.0,13.4,1505.3,327.9,-0.7,1.8,2470.289,13.32,0.039,11.6
2020-07-08T04:31:03,42.805,6.029,0.036,0.01,0.038,104.0,113.0,101.0,13.3,1505.3,326.5,-0.7,1.8,2470.277,13.32,0.037,74.5
2020-07-08T04:34:03,42.805,6.029,0.009,0.034,0.001,103.0,113.0,102.0,13.3,1505.3,327.5,-0.7,1.8,2470.305,13.32,0.035,14.8
2020-07-08T04:37:03,42.805,6.029,0.043,0.003,0.017,104.0,113.0,101.0,13.3,1505.3,326.1,-0.7,1.8,2470.295,13.32,0.043,86.0
2020-07-08T04:40:03,42.805,6.029,0.01,0.043,-0.016,105.0,111.0,101.0,13.3,1505.3,327.0,-0.7,1.8,2470.311,13.32,0.044,13.1
2020-07-08T04:43:03,42.805,6.029,0.023,0.008,0.0,104.0,113.0,101.0,13.4,1505.3,323.0,-0.7,1.9,2470.316,13.32,0.024,70.8
2020-07-08T04:46:03,42.805,6.029,0.014,0.016,0.004,103.0,112.0,101.0,13.3,1505.3,324.0,-0.7,1.8,2470.314,13.32,0.021,41.2
2020-07-08T04:49:03,42.805,6.029,0.004,0.042,0.001,105.0,112.0,101.0,13.4,1505.3,328.1,-0.7,1.8,2470.267,13.32,0.042,5.4
2020-07-08T04:52:03,42.805,6.029,-0.01,0.011,-0.038,103.0,113.0,102.0,13.4,1505.3,327.7,-0.7,1.8,2470.318,13.32,0.014,317.7
2020-07-08T04:55:03,42.805,6.029,0.015,0.018,0.011,104.0,114.0,101.0,13.4,1505.3,325.9,-0.7,1.8,2470.284,13.32,0.023,39.8
2020-07-08T04:58:03,42.805,6.029,0.004,0.006,-0.03,105.0,114.0,102.0,13.4,1505.3,325.9,-0.7,1.8,2470.26,13.32,0.007,33.7
2020-07-08T05:04:03,42.805,6.029,0.042,0.032,0.016,104.0,115.0,101.0,13.4,1505.2,325.3,-0.7,1.8,2470.342,13.3,0.052,52.7
2020-07-08T05:07:03,42.805,6.029,0.006,0.015,-0.017,103.0,113.0,101.0,13.3,1505.3,324.1,-0.7,1.9,2470.312,13.31,0.016,21.8
2020-07-08T05:10:03,42.805,6.029,0.028,0.017,0.019,105.0,112.0,101.0,13.4,1505.3,327.7,-0.7,1.8,2470.284,13.32,0.032,58.7
2020-07-08T05:13:03,42.805,6.029,-0.004,0.019,0.006,104.0,114.0,102.0,13.4,1505.3,326.6,-0.7,1.8,2470.278,13.32,0.019,348.1
2020-07-08T05:16:03,42.805,6.029,0.018,0.002,-0.035,105.0,115.0,102.0,13.4,1505.3,324.1,-0.7,1.9,2470.305,13.32,0.018,83.7
2020-07-08T05:22:03,42.805,6.029,0.003,0.049,-0.008,104.0,116.0,102.0,13.4,1505.2,325.7,-0.8,1.8,2470.33,13.3,0.049,3.5
2020-07-08T05:25:03,42.805,6.029,0.033,0.02,-0.01,103.0,116.0,102.0,13.3,1505.3,324.5,-0.7,1.9,2470.311,13.31,0.038,58.8
2020-07-08T05:28:03,42.805,6.029,0.043,0.012,-0.035,106.0,116.0,102.0,13.3,1505.3,327.6,-0.7,1.9,2470.343,13.31,0.044,74.4
2020-07-08T05:31:03,42.805,6.029,0.022,0.002,-0.037,105.0,117.0,102.0,13.4,1505.3,328.4,-0.7,1.8,2470.33,13.32,0.022,84.8
2020-07-08T05:34:03,42.805,6.029,0.047,0.002,-0.002,105.0,116.0,101.0,13.3,1505.3,327.5,-0.7,1.8,2470.331,13.32,0.047,87.6
2020-07-08T05:37:03,42.805,6.029,0.034,0.035,-0.011,106.0,109.0,102.0,13.3,1505.3,324.7,-0.7,1.8,2470.352,13.32,0.048,44.2
2020-07-08T05:40:03,42.805,6.029,0.045,0.012,0.011,105.0,111.0,102.0,13.4,1505.3,327.8,-0.7,1.8,2470.327,13.32,0.046,75.1
2020-07-08T05:43:03,42.805,6.029,0.032,-0.012,-0.03,105.0,112.0,102.0,13.4,1505.3,327.7,-0.7,1.8,2470.32,13.32,0.034,110.6
2020-07-08T05:46:03,42.805,6.029,0.039,0.026,-0.015,105.0,111.0,102.0,13.4,1505.3,325.2,-0.7,1.8,2470.339,13.32,0.046,56.3
2020-07-08T05:49:03,42.805,6.029,0.023,0.015,-0.023,105.0,110.0,102.0,13.4,1505.3,324.7,-0.7,1.9,2470.312,13.32,0.027,56.9
2020-07-08T05:52:03,42.805,6.029,0.053,0.001,-0.007,104.0,110.0,102.0,13.3,1505.3,323.0,-0.7,1.8,2470.338,13.32,0.053,88.9
2020-07-08T05:55:03,42.805,6.029,0.025,-0.009,-0.004,105.0,110.0,103.0,13.3,1505.3,322.7,-0.6,1.8,2470.329,13.32,0.026,109.8
2020-07-08T05:58:03,42.805,6.029,0.034,0.01,-0.015,106.0,107.0,103.0,13.4,1505.3,325.2,-0.7,1.8,2470.337,13.32,0.035,73.6
2020-07-08T06:04:03,42.805,6.029,0.022,-0.002,-0.023,105.0,108.0,102.0,13.3,1505.2,324.6,-0.7,1.8,2470.356,13.3,0.022,95.2
2020-07-08T06:07:03,42.805,6.029,0.038,0.015,0.003,104.0,110.0,102.0,13.4,1505.3,323.0,-0.7,1.8,2470.339,13.31,0.04,68.5
2020-07-08T06:10:03,42.805,6.029,0.035,-0.008,-0.014,105.0,111.0,102.0,13.4,1505.3,326.6,-0.7,1.8,2470.406,13.32,0.035,102.9
2020-07-08T06:13:03,42.805,6.029,0.037,0.012,-0.003,106.0,109.0,103.0,13.3,1505.3,323.4,-0.7,1.8,2470.333,13.32,0.038,72.0
2020-07-08T06:16:03,42.805,6.029,0.027,-0.006,-0.021,105.0,109.0,102.0,13.4,1505.3,326.6,-0.7,1.8,2470.341,13.32,0.027,102.5
2020-07-08T06:19:03,42.805,6.029,0.029,0.003,-0.007,104.0,110.0,101.0,13.4,1505.3,325.2,-0.7,1.9,2470.363,13.32,0.029,84.1
2020-07-08T06:22:03,42.805,6.029,0.061,0.014,0.023,105.0,110.0,102.0,13.4,1505.3,324.0,-0.7,1.8,2470.345,13.32,0.062,77.1
2020-07-08T06:25:03,42.805,6.029,0.026,0.006,-0.016,104.0,109.0,102.0,13.4,1505.3,326.9,-0.7,1.9,2470.347,13.32,0.026,77.0
2020-07-08T06:28:03,42.805,6.029,0.033,-0.003,-0.017,104.0,111.0,101.0,13.4,1505.3,325.9,-0.7,1.8,2470.346,13.32,0.033,95.2
2020-07-08T06:31:03,42.805,6.029,0.051,0.0,-0.015,104.0,109.0,102.0,13.4,1505.3,327.1,-0.7,1.8,2470.352,13.32,0.051,90.0
2020-07-08T06:34:03,42.805,6.029,0.024,0.001,-0.029,105.0,110.0,101.0,13.4,1505.3,323.4,-0.7,1.8,2470.365,13.32,0.024,87.6
2020-07-08T06:37:03,42.805,6.029,0.017,0.008,-0.011,105.0,109.0,102.0,13.3,1505.3,325.4,-0.7,1.8,2470.35,13.32,0.018,64.8
2020-07-08T06:40:03,42.805,6.029,0.041,0.012,-0.051,105.0,107.0,101.0,13.4,1505.3,324.9,-0.7,1.8,2470.365,13.32,0.042,73.7
2020-07-08T06:43:03,42.805,6.029,0.025,-0.012,-0.047,106.0,107.0,102.0,13.4,1505.3,324.8,-0.7,1.8,2470.327,13.32,0.027,115.6
2020-07-08T06:46:03,42.805,6.029,0.039,-0.007,-0.012,105.0,108.0,102.0,13.4,1505.3,325.2,-0.7,1.8,2470.36,13.32,0.039,100.2
2020-07-08T06:49:03,42.805,6.029,0.046,-0.017,-0.046,104.0,108.0,102.0,13.4,1505.3,326.1,-0.7,1.8,2470.373,13.32,0.049,110.3
2020-07-08T06:52:03,42.805,6.029,0.04,-0.005,-0.014,104.0,110.0,102.0,13.4,1505.3,322.8,-0.7,1.8,2470.395,13.32,0.04,97.1
2020-07-08T06:55:03,42.805,6.029,0.041,0.01,-0.028,104.0,109.0,102.0,13.4,1505.3,325.9,-0.7,1.9,2470.386,13.32,0.042,76.3
2020-07-08T06:58:03,42.805,6.029,0.028,-0.005,-0.029,104.0,107.0,103.0,13.4,1505.3,323.5,-0.7,1.8,2470.358,13.32,0.028,100.1
2020-07-08T07:04:03,42.805,6.029,0.043,0.003,-0.007,105.0,108.0,102.0,13.3,1505.2,325.0,-0.7,1.8,2470.418,13.3,0.043,86.0
2020-07-08T07:07:03,42.805,6.029,0.026,-0.018,-0.019,104.0,106.0,103.0,13.3,1505.3,324.8,-0.8,1.8,2470.389,13.31,0.031,124.7
2020-07-08T07:10:03,42.805,6.029,0.028,-0.008,-0.05,105.0,107.0,102.0,13.4,1505.3,323.8,-0.8,1.8,2470.373,13.31,0.029,105.9
2020-07-08T07:13:03,42.805,6.029,0.022,-0.002,-0.039,105.0,109.0,103.0,13.3,1505.3,324.5,-0.7,1.8,2470.389,13.32,0.022,95.2
2020-07-08T07:16:03,42.805,6.029,0.044,-0.007,-0.01,104.0,110.0,101.0,13.4,1505.3,324.8,-0.7,1.8,2470.385,13.32,0.044,99.0
2020-07-08T07:19:03,42.805,6.029,0.053,-0.002,0.004,104.0,108.0,102.0,13.4,1505.3,327.6,-0.7,1.8,2470.378,13.32,0.053,92.2
2020-07-08T07:22:03,42.805,6.029,0.018,-0.018,-0.031,105.0,110.0,102.0,13.4,1505.3,326.3,-0.7,1.8,2470.381,13.32,0.025,135.0
2020-07-08T07:25:03,42.805,6.029,0.057,-0.019,0.001,105.0,107.0,102.0,13.3,1505.3,324.7,-0.7,1.9,2470.393,13.32,0.06,108.4
2020-07-08T07:28:03,42.805,6.029,0.028,0.008,-0.02,104.0,108.0,102.0,13.4,1505.3,324.8,-0.7,1.8,2470.358,13.32,0.029,74.1
2020-07-08T07:31:03,42.805,6.029,0.053,0.016,0.021,105.0,107.0,102.0,13.3,1505.3,326.7,-0.7,1.9,2470.373,13.32,0.055,73.2
2020-07-08T07:34:03,42.805,6.029,0.046,-0.003,0.006,103.0,107.0,103.0,13.3,1505.3,326.5,-0.7,1.8,2470.384,13.32,0.046,93.7
2020-07-08T07:37:03,42.805,6.029,0.035,-0.018,-0.019,104.0,106.0,102.0,13.4,1505.3,326.5,-0.7,1.8,2470.378,13.32,0.039,117.2
2020-07-08T07:40:03,42.805,6.029,0.038,-0.002,-0.055,105.0,107.0,102.0,13.4,1505.3,324.2,-0.7,1.9,2470.365,13.32,0.038,93.0
2020-07-08T07:43:03,42.805,6.029,0.024,-0.016,-0.031,105.0,108.0,102.0,13.4,1505.3,324.8,-0.7,1.8,2470.393,13.32,0.028,123.7
2020-07-08T07:46:03,42.805,6.029,0.024,0.0,-0.036,106.0,108.0,103.0,13.3,1505.3,326.3,-0.7,1.8,2470.391,13.32,0.024,90.0
2020-07-08T07:49:03,42.805,6.029,0.028,-0.01,-0.036,105.0,108.0,103.0,13.4,1505.3,326.9,-0.7,1.8,2470.368,13.32,0.029,109.6
2020-07-08T07:52:03,42.805,6.029,0.061,0.015,-0.007,106.0,108.0,102.0,13.3,1505.3,326.1,-0.7,1.8,2470.402,13.32,0.062,76.2
2020-07-08T07:55:03,42.805,6.029,0.045,0.023,0.0,104.0,107.0,100.0,13.4,1505.3,324.1,-0.7,1.8,2470.411,13.32,0.05,62.9
2020-07-08T07:58:03,42.805,6.029,0.043,-0.009,-0.037,104.0,109.0,101.0,13.3,1505.3,323.0,-0.7,1.8,2470.387,13.32,0.043,101.8
2020-07-08T08:04:03,42.805,6.029,0.056,-0.004,-0.02,105.0,108.0,102.0,13.4,1505.2,324.4,-0.7,1.8,2470.419,13.3,0.056,94.1
2020-07-08T08:07:03,42.805,6.029,0.046,0.016,0.008,104.0,107.0,101.0,13.4,1505.3,327.2,-0.7,1.9,2470.408,13.31,0.048,70.8
2020-07-08T08:10:03,42.805,6.029,0.022,0.004,-0.034,104.0,108.0,102.0,13.3,1505.3,326.5,-0.7,1.8,2470.393,13.31,0.022,79.7
2020-07-08T08:13:03,42.805,6.029,0.033,-0.008,0.044,104.0,108.0,102.0,13.4,1505.3,327.5,-0.7,1.8,2470.443,13.32,0.033,103.6
2020-07-08T08:16:03,42.805,6.029,0.027,-0.017,-0.029,105.0,106.0,101.0,13.4,1505.3,327.5,-0.7,1.8,2470.427,13.32,0.031,122.2
2020-07-08T08:19:03,42.805,6.029,0.03,-0.01,-0.03,105.0,106.0,101.0,13.4,1505.3,325.7,-0.7,1.8,2470.433,13.32,0.031,108.4
2020-07-08T08:22:03,42.805,6.029,0.039,-0.014,-0.001,105.0,106.0,102.0,13.4,1505.3,326.1,-0.7,1.8,2470.43,13.32,0.041,109.7
2020-07-08T08:25:03,42.805,6.029,0.007,0.0,0.003,105.0,108.0,102.0,13.4,1505.3,323.0,-0.7,1.8,2470.413,13.32,0.007,90.0
2020-07-08T08:28:03,42.805,6.029,0.055,-0.008,-0.003,105.0,107.0,102.0,13.3,1505.3,324.6,-0.7,1.8,2470.439,13.32,0.055,98.3
2020-07-08T08:31:03,42.805,6.029,0.047,-0.029,-0.013,105.0,107.0,102.0,13.4,1505.3,326.2,-0.7,1.8,2470.435,13.32,0.055,121.7
2020-07-08T08:34:03,42.805,6.029,0.041,0.003,0.021,105.0,106.0,100.0,13.3,1505.3,323.0,-0.7,1.8,2470.425,13.32,0.041,85.8
2020-07-08T08:37:03,42.805,6.029,0.014,0.024,-0.012,104.0,107.0,102.0,13.4,1505.3,325.9,-0.7,1.8,2470.404,13.32,0.027,30.3
2020-07-08T08:40:03,42.805,6.029,0.031,-0.022,-0.028,104.0,108.0,102.0,13.3,1505.3,326.0,-0.7,1.8,2470.444,13.32,0.038,125.4
2020-07-08T08:43:03,42.805,6.029,0.016,-0.027,-0.052,105.0,107.0,101.0,13.4,1505.3,328.0,-0.7,1.8,2470.385,13.32,0.031,149.3
2020-07-08T08:46:03,42.805,6.029,0.054,0.0,0.001,105.0,107.0,102.0,13.4,1505.3,323.3,-0.7,1.8,2470.382,13.32,0.053,90.0
2020-07-08T08:49:03,42.805,6.029,0.015,-0.016,-0.028,105.0,106.0,102.0,13.4,1505.3,324.8,-0.7,1.8,2470.444,13.32,0.021,136.9
2020-07-08T08:52:03,42.805,6.029,0.034,0.0,-0.01,105.0,107.0,101.0,13.4,1505.3,326.9,-0.7,1.8,2470.405,13.32,0.034,90.0
2020-07-08T08:55:03,42.805,6.029,0.047,-0.011,0.011,106.0,108.0,102.0,13.4,1505.3,326.2,-0.8,1.8,2470.453,13.32,0.048,103.2
2020-07-08T08:58:03,42.805,6.029,0.043,0.004,0.02,104.0,106.0,102.0,13.3,1505.3,326.3,-0.7,1.8,2470.407,13.32,0.043,84.7
2020-07-08T09:04:03,42.805,6.029,0.018,0.006,-0.037,105.0,106.0,102.0,13.4,1505.2,323.4,-0.7,1.8,2470.453,13.3,0.018,71.6
2020-07-08T09:07:03,42.805,6.029,0.045,-0.01,0.007,105.0,107.0,101.0,13.4,1505.3,324.7,-0.7,1.8,2470.442,13.31,0.046,102.5
2020-07-08T09:10:03,42.805,6.029,0.026,0.007,0.0,105.0,105.0,101.0,13.4,1505.3,323.1,-0.7,1.8,2470.454,13.32,0.026,74.9
2020-07-08T09:13:03,42.805,6.029,0.038,-0.025,0.004,104.0,107.0,101.0,13.3,1505.3,328.0,-0.7,1.8,2470.462,13.32,0.045,123.3
2020-07-08T09:16:03,42.805,6.029,0.05,0.02,0.009,104.0,106.0,102.0,13.4,1505.3,322.9,-0.7,1.8,2470.402,13.32,0.053,68.2
2020-07-08T09:19:03,42.805,6.029,0.047,-0.021,-0.024,103.0,106.0,102.0,13.4,1505.3,325.3,-0.7,1.8,2470.408,13.32,0.051,114.1
2020-07-08T09:22:03,42.805,6.029,0.029,0.005,0.0,105.0,107.0,103.0,13.4,1505.3,327.0,-0.7,1.8,2470.404,13.32,0.029,80.2
2020-07-08T09:25:03,42.805,6.029,0.027,0.016,0.004,104.0,106.0,102.0,13.3,1505.3,327.0,-0.7,1.8,2470.415,13.32,0.031,59.3
2020-07-08T09:28:03,42.805,6.029,0.05,-0.001,-0.022,105.0,106.0,103.0,13.4,1505.3,324.9,-0.7,1.8,2470.395,13.32,0.05,91.1
2020-07-08T09:31:03,42.805,6.029,0.025,-0.007,-0.058,105.0,106.0,102.0,13.3,1505.3,328.5,-0.7,1.8,2470.394,13.32,0.025,105.6
2020-07-08T09:34:03,42.805,6.029,0.014,-0.001,-0.019,104.0,107.0,101.0,13.4,1505.3,323.0,-0.7,1.8,2470.423,13.32,0.014,94.1
2020-07-08T09:37:03,42.805,6.029,0.024,0.014,-0.01,104.0,108.0,101.0,13.4,1505.3,325.6,-0.7,1.8,2470.413,13.32,0.027,59.7
2020-07-08T09:40:03,42.805,6.029,0.026,0.005,-0.024,106.0,106.0,101.0,13.3,1505.3,326.3,-0.7,1.8,2470.376,13.32,0.026,79.1
2020-07-08T09:43:03,42.805,6.029,0.038,-0.011,-0.001,105.0,106.0,102.0,13.4,1505.3,326.1,-0.7,1.8,2470.423,13.32,0.039,106.1
2020-07-08T09:46:03,42.805,6.029,0.032,0.0,-0.022,105.0,107.0,102.0,13.4,1505.3,328.2,-0.7,1.8,2470.357,13.32,0.032,90.0
2020-07-08T09:49:03,42.805,6.029,0.036,-0.008,-0.017,105.0,106.0,101.0,13.3,1505.3,326.4,-0.8,1.8,2470.458,13.32,0.036,102.5
2020-07-08T09:52:03,42.805,6.029,0.012,-0.011,-0.028,105.0,107.0,102.0,13.3,1505.3,326.9,-0.7,1.8,2470.375,13.32,0.016,132.5
2020-07-08T09:55:03,42.805,6.029,0.043,-0.007,0.017,104.0,106.0,102.0,13.3,1505.3,324.3,-0.7,1.8,2470.409,13.32,0.043,99.2
2020-07-08T09:58:03,42.805,6.029,0.057,0.015,-0.032,105.0,106.0,101.0,13.4,1505.3,325.7,-0.7,1.8,2470.387,13.32,0.058,75.3
2020-07-08T10:04:03,42.805,6.029,0.011,-0.009,-0.021,106.0,106.0,102.0,13.3,1505.2,325.1,-0.7,1.8,2470.423,13.3,0.014,129.3
2020-07-08T10:07:03,42.805,6.029,0.03,0.005,-0.027,105.0,107.0,101.0,13.3,1505.3,323.7,-0.7,1.8,2470.393,13.31,0.03,80.5